Time,TemperatureF,DewpointF,PressureIn,WindDirection,WindDirectionDegrees,WindSpeedMPH,WindSpeedGustMPH,Humidity,HourlyPrecipIn,Conditions,Clouds,dailyrainin,SoftwareType,DateUTC
2015-01-30 00:00:00,10.4,1.3,28.67,NNE,22,4.5,4.5,66,0.00,,---,0.00,VWS V15.00,2015-01-30 06:00:00,
2015-01-30 00:05:00,10.4,1.3,28.67,NW,315,7.6,7.6,66,0.00,,---,0.00,VWS V15.00,2015-01-30 06:05:00,
2015-01-30 00:10:00,10.4,1.3,28.67,NNW,338,5.3,5.3,66,0.00,,---,0.00,VWS V15.00,2015-01-30 06:10:00,
2015-01-30 00:15:00,10.4,1.3,28.67,NNW,338,5.3,5.3,66,0.00,,---,0.00,VWS V15.00,2015-01-30 06:15:00,
2015-01-30 00:20:00,10.2,1.1,28.67,NNE,22,3.6,3.6,66,0.00,,---,0.00,VWS V15.00,2015-01-30 06:20:00,
2015-01-30 00:25:00,10.2,1.1,28.67,NW,315,3.9,3.9,66,0.00,,---,0.00,VWS V15.00,2015-01-30 06:25:00,
2015-01-30 00:30:00,10.2,1.1,28.67,NNW,338,4.8,4.8,66,0.00,,---,0.00,VWS V15.00,2015-01-30 06:30:00,
2015-01-30 00:35:00,10.2,1.1,28.67,North,0,1.4,1.4,66,0.00,,---,0.00,VWS V15.00,2015-01-30 06:35:00,
2015-01-30 00:40:00,10.0,1.0,28.67,North,0,1.4,1.4,66,0.00,,---,0.00,VWS V15.00,2015-01-30 06:40:00,
2015-01-30 00:45:00,10.0,1.0,28.70,NNW,338,6.2,6.2,66,0.00,,---,0.00,VWS V15.00,2015-01-30 06:45:00,
2015-01-30 00:50:00,10.0,1.0,28.70,North,0,5.3,5.3,66,0.00,,---,0.00,VWS V15.00,2015-01-30 06:50:00,
2015-01-30 00:55:00,10.0,1.0,28.70,North,0,3.9,3.9,66,0.00,,---,0.00,VWS V15.00,2015-01-30 06:55:00,
2015-01-30 01:00:00,10.0,1.0,28.67,North,0,3.6,3.6,66,0.00,,---,0.00,VWS V15.00,2015-01-30 07:00:00,
2015-01-30 01:05:00,10.0,1.0,28.67,NNW,338,9.0,9.0,66,0.00,,---,0.00,VWS V15.00,2015-01-30 07:05:00,
2015-01-30 01:10:00,10.0,1.0,28.67,North,0,4.8,4.8,66,0.00,,---,0.00,VWS V15.00,2015-01-30 07:10:00,
2015-01-30 01:15:00,10.0,1.0,28.70,North,0,5.0,5.0,66,0.00,,---,0.00,VWS V15.00,2015-01-30 07:15:00,
2015-01-30 01:20:00,10.0,1.0,28.70,North,0,7.0,7.0,66,0.00,,---,0.00,VWS V15.00,2015-01-30 07:20:00,
2015-01-30 01:25:00,10.0,1.0,28.70,NNE,22,4.8,4.8,66,0.00,,---,0.00,VWS V15.00,2015-01-30 07:25:00,
2015-01-30 01:30:00,10.0,1.0,28.70,NW,315,3.4,3.4,66,0.00,,---,0.00,VWS V15.00,2015-01-30 07:30:00,
2015-01-30 01:35:00,9.9,0.8,28.70,North,0,9.0,9.0,66,0.00,,---,0.00,VWS V15.00,2015-01-30 07:35:00,
2015-01-30 01:40:00,9.9,0.8,28.70,NW,315,4.5,4.5,66,0.00,,---,0.00,VWS V15.00,2015-01-30 07:40:00,
2015-01-30 01:45:00,9.9,0.8,28.70,NNW,338,5.0,5.0,66,0.00,,---,0.00,VWS V15.00,2015-01-30 07:45:00,
2015-01-30 01:50:00,9.9,0.8,28.70,NNW,338,6.2,6.2,66,0.00,,---,0.00,VWS V15.00,2015-01-30 07:50:00,
2015-01-30 01:55:00,9.9,0.8,28.70,North,0,3.9,3.9,66,0.00,,---,0.00,VWS V15.00,2015-01-30 07:55:00,
2015-01-30 02:00:00,9.7,0.6,28.70,North,0,6.7,6.7,66,0.00,,---,0.00,VWS V15.00,2015-01-30 08:00:00,
2015-01-30 02:05:00,9.7,0.6,28.70,North,0,4.8,4.8,66,0.00,,---,0.00,VWS V15.00,2015-01-30 08:05:00,
2015-01-30 02:10:00,9.7,0.6,28.70,North,0,5.3,5.3,66,0.00,,---,0.00,VWS V15.00,2015-01-30 08:10:00,
2015-01-30 02:15:00,9.7,0.6,28.70,NNW,338,7.8,7.8,66,0.00,,---,0.00,VWS V15.00,2015-01-30 08:15:00,
2015-01-30 02:20:00,9.7,0.6,28.70,NE,45,4.2,4.2,66,0.00,,---,0.00,VWS V15.00,2015-01-30 08:20:00,
2015-01-30 02:25:00,9.7,0.6,28.70,NNW,338,6.2,6.2,66,0.00,,---,0.00,VWS V15.00,2015-01-30 08:25:00,
2015-01-30 02:30:00,9.7,0.6,28.73,NNE,22,2.0,2.0,66,0.00,,---,0.00,VWS V15.00,2015-01-30 08:30:00,
2015-01-30 02:35:00,9.5,0.4,28.73,NW,315,7.6,7.6,66,0.00,,---,0.00,VWS V15.00,2015-01-30 08:35:00,
2015-01-30 02:40:00,9.5,0.4,28.73,NNW,338,4.5,4.5,66,0.00,,---,0.00,VWS V15.00,2015-01-30 08:40:00,
2015-01-30 02:45:00,9.5,0.4,28.70,North,0,2.5,2.5,66,0.00,,---,0.00,VWS V15.00,2015-01-30 08:45:00,
2015-01-30 02:50:00,9.5,0.4,28.70,NNW,338,2.8,2.8,66,0.00,,---,0.00,VWS V15.00,2015-01-30 08:50:00,
2015-01-30 02:55:00,9.5,0.4,28.70,NW,315,1.7,1.7,66,0.00,,---,0.00,VWS V15.00,2015-01-30 08:55:00,
2015-01-30 03:00:00,9.3,0.3,28.73,NNW,338,3.4,3.4,66,0.00,,---,0.00,VWS V15.00,2015-01-30 09:00:00,
2015-01-30 03:05:00,9.3,0.3,28.73,WNW,292,3.4,3.4,66,0.00,,---,0.00,VWS V15.00,2015-01-30 09:05:00,
2015-01-30 03:10:00,9.3,0.3,28.73,North,0,4.8,4.8,66,0.00,,---,0.00,VWS V15.00,2015-01-30 09:10:00,
2015-01-30 03:15:00,9.1,0.1,28.73,NNW,338,3.6,3.6,66,0.00,,---,0.00,VWS V15.00,2015-01-30 09:15:00,
2015-01-30 03:20:00,9.1,0.1,28.73,NNW,338,2.0,2.0,66,0.00,,---,0.00,VWS V15.00,2015-01-30 09:20:00,
2015-01-30 03:25:00,9.1,0.1,28.73,NW,315,3.9,3.9,66,0.00,,---,0.00,VWS V15.00,2015-01-30 09:25:00,
2015-01-30 03:30:00,9.0,-0.1,28.73,NNW,338,3.1,3.1,66,0.00,,---,0.00,VWS V15.00,2015-01-30 09:30:00,
2015-01-30 03:36:00,9.0,-0.1,28.73,North,0,2.5,2.5,66,0.00,,---,0.00,VWS V15.00,2015-01-30 09:36:00,
2015-01-30 03:40:00,8.8,-0.2,28.73,North,0,1.7,1.7,66,0.00,,---,0.00,VWS V15.00,2015-01-30 09:40:00,
2015-01-30 03:46:00,8.8,-0.2,28.73,NNW,338,3.1,3.1,66,0.00,,---,0.00,VWS V15.00,2015-01-30 09:46:00,
2015-01-30 03:51:00,8.8,-0.2,28.73,NW,315,2.5,2.5,66,0.00,,---,0.00,VWS V15.00,2015-01-30 09:51:00,
2015-01-30 03:56:00,8.8,-0.2,28.73,WNW,292,2.0,2.0,66,0.00,,---,0.00,VWS V15.00,2015-01-30 09:56:00,
2015-01-30 04:00:00,8.8,-0.2,28.73,North,0,3.1,3.1,66,0.00,,---,0.00,VWS V15.00,2015-01-30 10:00:00,
2015-01-30 04:06:00,8.8,-0.2,28.73,NNW,338,2.0,2.0,66,0.00,,---,0.00,VWS V15.00,2015-01-30 10:06:00,
2015-01-30 04:11:00,8.8,-0.2,28.73,North,0,3.4,3.4,66,0.00,,---,0.00,VWS V15.00,2015-01-30 10:11:00,
2015-01-30 04:16:00,8.6,-0.4,28.73,NE,45,1.1,1.1,66,0.00,,---,0.00,VWS V15.00,2015-01-30 10:16:00,
2015-01-30 04:21:00,8.6,-0.4,28.73,NNW,338,1.4,1.4,66,0.00,,---,0.00,VWS V15.00,2015-01-30 10:21:00,
2015-01-30 04:26:00,8.6,-0.4,28.73,ENE,68,0.0,0.0,66,0.00,,---,0.00,VWS V15.00,2015-01-30 10:26:00,
2015-01-30 04:31:00,8.4,-0.6,28.73,NE,45,0.0,0.0,66,0.00,,---,0.00,VWS V15.00,2015-01-30 10:31:00,
2015-01-30 04:36:00,8.4,-0.6,28.73,NW,315,2.0,2.0,66,0.00,,---,0.00,VWS V15.00,2015-01-30 10:36:00,
2015-01-30 04:41:00,8.4,-0.6,28.73,NNW,338,6.2,6.2,66,0.00,,---,0.00,VWS V15.00,2015-01-30 10:41:00,
2015-01-30 04:46:00,8.4,-0.6,28.73,NW,315,2.0,2.0,66,0.00,,---,0.00,VWS V15.00,2015-01-30 10:46:00,
2015-01-30 04:51:00,8.6,-0.4,28.73,North,0,1.4,1.4,66,0.00,,---,0.00,VWS V15.00,2015-01-30 10:51:00,
2015-01-30 04:56:00,8.6,-0.4,28.73,NW,315,4.2,4.2,66,0.00,,---,0.00,VWS V15.00,2015-01-30 10:56:00,
2015-01-30 05:01:00,8.6,-0.4,28.73,WNW,292,1.1,1.1,66,0.00,,---,0.00,VWS V15.00,2015-01-30 11:01:00,
2015-01-30 05:06:00,8.6,-0.4,28.73,NW,315,1.4,1.4,66,0.00,,---,0.00,VWS V15.00,2015-01-30 11:06:00,
2015-01-30 05:11:00,8.6,-0.4,28.73,NE,45,1.4,1.4,66,0.00,,---,0.00,VWS V15.00,2015-01-30 11:11:00,
2015-01-30 05:16:00,8.6,-0.4,28.73,North,0,2.0,2.0,66,0.00,,---,0.00,VWS V15.00,2015-01-30 11:16:00,
2015-01-30 05:21:00,8.6,-0.4,28.73,NNE,22,1.1,1.1,66,0.00,,---,0.00,VWS V15.00,2015-01-30 11:21:00,
2015-01-30 05:26:00,8.4,-0.6,28.73,NE,45,0.0,0.0,66,0.00,,---,0.00,VWS V15.00,2015-01-30 11:26:00,
2015-01-30 05:31:00,8.4,-0.6,28.73,NE,45,0.0,0.0,66,0.00,,---,0.00,VWS V15.00,2015-01-30 11:31:00,
2015-01-30 05:36:00,8.4,-0.6,28.73,NE,45,0.0,0.0,66,0.00,,---,0.00,VWS V15.00,2015-01-30 11:36:00,
2015-01-30 05:41:00,8.4,-0.6,28.73,North,0,2.8,2.8,66,0.00,,---,0.00,VWS V15.00,2015-01-30 11:41:00,
2015-01-30 05:46:00,8.4,-0.6,28.73,SW,225,0.0,0.0,66,0.00,,---,0.00,VWS V15.00,2015-01-30 11:46:00,
2015-01-30 05:51:00,8.4,-0.6,28.73,SW,225,0.0,0.0,66,0.00,,---,0.00,VWS V15.00,2015-01-30 11:51:00,
2015-01-30 05:56:00,8.4,-0.6,28.73,WSW,248,0.0,0.0,66,0.00,,---,0.00,VWS V15.00,2015-01-30 11:56:00,
2015-01-30 06:01:00,8.4,-0.6,28.70,WNW,292,0.0,0.0,66,0.00,,---,0.00,VWS V15.00,2015-01-30 12:01:00,
2015-01-30 06:06:00,8.4,-0.6,28.70,WNW,292,0.0,0.0,66,0.00,,---,0.00,VWS V15.00,2015-01-30 12:06:00,
2015-01-30 06:11:00,8.4,-0.6,28.70,WNW,292,0.0,0.0,66,0.00,,---,0.00,VWS V15.00,2015-01-30 12:11:00,
2015-01-30 06:16:00,8.4,-0.6,28.73,WSW,248,0.0,0.0,66,0.00,,---,0.00,VWS V15.00,2015-01-30 12:16:00,
2015-01-30 06:21:00,8.4,-0.6,28.73,NW,315,0.0,0.0,66,0.00,,---,0.00,VWS V15.00,2015-01-30 12:21:00,
2015-01-30 06:35:00,8.4,-0.6,28.73,WSW,248,0.0,0.0,66,0.00,,---,0.00,VWS V15.00,2015-01-30 12:35:00,
2015-01-30 06:40:00,8.4,-0.6,28.73,WNW,292,0.0,0.0,66,0.00,,---,0.00,VWS V15.00,2015-01-30 12:40:00,
2015-01-30 06:45:00,8.4,-0.6,28.70,WNW,292,2.8,2.8,66,0.00,,---,0.00,VWS V15.00,2015-01-30 12:45:00,
2015-01-30 06:50:00,8.4,-0.6,28.70,WNW,292,0.0,0.0,66,0.00,,---,0.00,VWS V15.00,2015-01-30 12:50:00,
2015-01-30 06:55:00,8.4,-0.6,28.70,WNW,292,0.0,0.0,66,0.00,,---,0.00,VWS V15.00,2015-01-30 12:55:00,
2015-01-30 07:00:00,8.4,-0.6,28.73,WNW,292,0.0,0.0,66,0.00,,---,0.00,VWS V15.00,2015-01-30 13:00:00,
2015-01-30 07:05:00,8.4,-0.6,28.73,SSE,158,0.0,0.0,66,0.00,,---,0.00,VWS V15.00,2015-01-30 13:05:00,
2015-01-30 07:10:00,8.2,-0.8,28.73,SW,225,0.0,0.0,66,0.00,,---,0.00,VWS V15.00,2015-01-30 13:10:00,
2015-01-30 07:15:00,8.2,-0.8,28.73,West,270,0.0,0.0,66,0.00,,---,0.00,VWS V15.00,2015-01-30 13:15:00,
2015-01-30 07:20:00,8.2,-0.8,28.73,WNW,292,0.0,0.0,66,0.00,,---,0.00,VWS V15.00,2015-01-30 13:20:00,
2015-01-30 07:25:00,8.2,-0.8,28.73,North,0,2.5,2.5,66,0.00,,---,0.00,VWS V15.00,2015-01-30 13:25:00,
2015-01-30 07:30:00,8.2,-0.8,28.73,WNW,292,0.0,0.0,66,0.00,,---,0.00,VWS V15.00,2015-01-30 13:30:00,
2015-01-30 07:35:00,8.4,-0.6,28.73,North,0,1.1,1.1,66,0.00,,---,0.00,VWS V15.00,2015-01-30 13:35:00,
2015-01-30 07:40:00,8.4,-0.6,28.73,NW,315,1.7,1.7,66,0.00,,---,0.00,VWS V15.00,2015-01-30 13:40:00,
2015-01-30 07:45:00,8.4,-0.6,28.73,NE,45,1.7,1.7,66,0.00,,---,0.00,VWS V15.00,2015-01-30 13:45:00,
2015-01-30 07:50:00,8.6,-0.4,28.73,NW,315,2.0,2.0,66,0.00,,---,0.00,VWS V15.00,2015-01-30 13:50:00,
2015-01-30 07:55:00,8.8,-0.2,28.73,NE,45,0.0,0.0,66,0.00,,---,0.00,VWS V15.00,2015-01-30 13:55:00,
2015-01-30 08:00:00,9.0,-0.1,28.73,WNW,292,2.8,2.8,66,0.00,,---,0.00,VWS V15.00,2015-01-30 14:00:00,
2015-01-30 08:05:00,9.3,0.3,28.73,WNW,292,0.0,0.0,66,0.00,,---,0.00,VWS V15.00,2015-01-30 14:05:00,
2015-01-30 08:10:00,9.5,0.4,28.73,West,270,1.7,1.7,66,0.00,,---,0.00,VWS V15.00,2015-01-30 14:10:00,
2015-01-30 08:15:00,9.9,0.8,28.73,West,270,0.0,0.0,66,0.00,,---,0.00,VWS V15.00,2015-01-30 14:15:00,
2015-01-30 08:20:00,10.2,1.1,28.73,North,0,2.0,2.0,66,0.00,,---,0.00,VWS V15.00,2015-01-30 14:20:00,
2015-01-30 08:25:00,10.4,1.3,28.73,NW,315,2.0,2.0,66,0.00,,---,0.00,VWS V15.00,2015-01-30 14:25:00,
2015-01-30 08:30:00,10.4,1.3,28.73,North,0,3.4,3.4,66,0.00,,---,0.00,VWS V15.00,2015-01-30 14:30:00,
2015-01-30 08:35:00,10.8,1.6,28.73,North,0,0.0,0.0,66,0.00,,---,0.00,VWS V15.00,2015-01-30 14:35:00,
2015-01-30 08:40:00,10.8,1.6,28.73,South,180,1.4,1.4,66,0.00,,---,0.00,VWS V15.00,2015-01-30 14:40:00,
2015-01-30 08:45:00,10.9,1.8,28.73,South,180,1.4,1.4,66,0.00,,---,0.00,VWS V15.00,2015-01-30 14:45:00,
2015-01-30 08:50:00,11.7,2.5,28.73,SSW,202,3.4,3.4,66,0.00,,---,0.00,VWS V15.00,2015-01-30 14:50:00,
2015-01-30 08:55:00,11.8,2.7,28.73,SW,225,3.6,3.6,66,0.00,,---,0.00,VWS V15.00,2015-01-30 14:55:00,
2015-01-30 09:00:00,11.8,2.7,28.76,South,180,3.1,3.1,66,0.00,,---,0.00,VWS V15.00,2015-01-30 15:00:00,
2015-01-30 09:05:00,11.5,2.3,28.76,South,180,3.4,3.4,66,0.00,,---,0.00,VWS V15.00,2015-01-30 15:05:00,
2015-01-30 09:10:00,11.1,2.0,28.76,SSW,202,4.8,4.8,66,0.00,,---,0.00,VWS V15.00,2015-01-30 15:10:00,
2015-01-30 09:15:00,10.9,1.8,28.73,West,270,3.6,3.6,66,0.00,,---,0.00,VWS V15.00,2015-01-30 15:15:00,
2015-01-30 09:20:00,11.1,2.0,28.73,South,180,1.4,1.4,66,0.00,,---,0.00,VWS V15.00,2015-01-30 15:20:00,
2015-01-30 09:25:00,10.9,1.8,28.73,SSW,202,1.4,1.4,66,0.00,,---,0.00,VWS V15.00,2015-01-30 15:25:00,
2015-01-30 09:30:00,10.9,1.8,28.73,SSW,202,3.1,3.1,66,0.00,,---,0.00,VWS V15.00,2015-01-30 15:30:00,
2015-01-30 09:35:00,11.1,2.0,28.73,SSW,202,4.2,4.2,66,0.00,,---,0.00,VWS V15.00,2015-01-30 15:35:00,
2015-01-30 09:40:00,11.3,2.2,28.73,South,180,1.4,1.4,66,0.00,,---,0.00,VWS V15.00,2015-01-30 15:40:00,
2015-01-30 09:45:00,12.0,2.9,28.73,WSW,248,1.4,1.4,66,0.00,,---,0.00,VWS V15.00,2015-01-30 15:45:00,
2015-01-30 09:50:00,12.6,3.4,28.73,South,180,1.7,1.7,66,0.00,,---,0.00,VWS V15.00,2015-01-30 15:50:00,
2015-01-30 09:55:00,13.1,3.9,28.73,SSW,202,3.4,3.4,66,0.00,,---,0.00,VWS V15.00,2015-01-30 15:55:00,
2015-01-30 10:00:00,12.9,3.7,28.76,SSW,202,2.5,2.5,66,0.00,,---,0.00,VWS V15.00,2015-01-30 16:00:00,
2015-01-30 10:05:00,13.5,4.2,28.76,South,180,4.5,4.5,66,0.00,,---,0.00,VWS V15.00,2015-01-30 16:05:00,
2015-01-30 10:10:00,13.6,4.4,28.76,SSW,202,1.7,1.7,66,0.00,,---,0.00,VWS V15.00,2015-01-30 16:10:00,
2015-01-30 10:15:00,14.9,3.5,28.73,SE,135,1.7,1.7,60,0.00,,---,0.00,VWS V15.00,2015-01-30 16:15:00,
2015-01-30 10:20:00,15.1,3.3,28.73,SSW,202,2.5,2.5,59,0.00,,---,0.00,VWS V15.00,2015-01-30 16:20:00,
2015-01-30 10:25:00,15.1,3.0,28.73,SSW,202,2.0,2.0,58,0.00,,---,0.00,VWS V15.00,2015-01-30 16:25:00,
2015-01-30 10:30:00,15.3,3.2,28.73,SSE,158,2.0,2.0,58,0.00,,---,0.00,VWS V15.00,2015-01-30 16:30:00,
2015-01-30 10:35:00,16.0,3.8,28.73,SSE,158,4.2,4.2,58,0.00,,---,0.00,VWS V15.00,2015-01-30 16:35:00,
2015-01-30 10:40:00,16.9,4.3,28.73,SE,135,4.8,4.8,57,0.00,,---,0.00,VWS V15.00,2015-01-30 16:40:00,
2015-01-30 10:46:00,16.3,3.4,28.70,WSW,248,1.7,1.7,56,0.00,,---,0.00,VWS V15.00,2015-01-30 16:46:00,
2015-01-30 10:51:00,16.0,3.1,28.70,SE,135,3.6,3.6,56,0.00,,---,0.00,VWS V15.00,2015-01-30 16:51:00,
2015-01-30 10:56:00,16.7,3.7,28.70,SSE,158,3.6,3.6,56,0.00,,---,0.00,VWS V15.00,2015-01-30 16:56:00,
2015-01-30 11:01:00,18.3,5.3,28.73,SSE,158,3.9,3.9,56,0.00,,---,0.00,VWS V15.00,2015-01-30 17:01:00,
2015-01-30 11:06:00,19.8,6.2,28.73,SSW,202,3.1,3.1,55,0.00,,---,0.00,VWS V15.00,2015-01-30 17:06:00,
2015-01-30 11:11:00,19.9,6.0,28.73,South,180,3.4,3.4,54,0.00,,---,0.00,VWS V15.00,2015-01-30 17:11:00,
2015-01-30 11:16:00,21.2,6.8,28.70,South,180,3.9,3.9,53,0.00,,---,0.00,VWS V15.00,2015-01-30 17:16:00,
2015-01-30 11:21:00,21.4,6.5,28.70,South,180,2.5,2.5,52,0.00,,---,0.00,VWS V15.00,2015-01-30 17:21:00,
2015-01-30 11:26:00,20.5,4.8,28.70,South,180,8.7,8.7,50,0.00,,---,0.00,VWS V15.00,2015-01-30 17:26:00,
2015-01-30 11:31:00,19.9,4.3,28.70,SSW,202,3.1,3.1,50,0.00,,---,0.00,VWS V15.00,2015-01-30 17:31:00,
2015-01-30 11:36:00,21.2,5.0,28.70,ESE,112,5.3,5.3,49,0.00,,---,0.00,VWS V15.00,2015-01-30 17:36:00,
2015-01-30 11:41:00,23.0,6.2,28.70,South,180,4.5,4.5,48,0.00,,---,0.00,VWS V15.00,2015-01-30 17:41:00,
2015-01-30 11:46:00,24.8,7.4,28.67,SW,225,5.3,5.3,47,0.00,,---,0.00,VWS V15.00,2015-01-30 17:46:00,
2015-01-30 11:51:00,25.2,6.8,28.67,SSW,202,7.3,7.3,45,0.00,,---,0.00,VWS V15.00,2015-01-30 17:51:00,
2015-01-30 11:56:00,25.3,6.5,28.67,SW,225,7.8,7.8,44,0.00,,---,0.00,VWS V15.00,2015-01-30 17:56:00,
2015-01-30 12:01:00,26.1,7.2,28.67,SSW,202,4.5,4.5,44,0.00,,---,0.00,VWS V15.00,2015-01-30 18:01:00,
2015-01-30 12:06:00,25.9,6.5,28.67,SSE,158,6.7,6.7,43,0.00,,---,0.00,VWS V15.00,2015-01-30 18:06:00,
2015-01-30 12:11:00,25.5,6.2,28.67,SSW,202,4.5,4.5,43,0.00,,---,0.00,VWS V15.00,2015-01-30 18:11:00,
2015-01-30 12:16:00,24.4,5.2,28.67,SSW,202,5.0,5.0,43,0.00,,---,0.00,VWS V15.00,2015-01-30 18:16:00,
2015-01-30 12:21:00,25.5,6.2,28.67,SSW,202,5.0,5.0,43,0.00,,---,0.00,VWS V15.00,2015-01-30 18:21:00,
2015-01-30 12:26:00,26.2,6.8,28.67,South,180,3.4,3.4,43,0.00,,---,0.00,VWS V15.00,2015-01-30 18:26:00,
2015-01-30 12:31:00,25.7,5.8,28.67,South,180,3.9,3.9,42,0.00,,---,0.00,VWS V15.00,2015-01-30 18:31:00,
2015-01-30 12:36:00,24.8,5.5,28.67,SW,225,3.4,3.4,43,0.00,,---,0.00,VWS V15.00,2015-01-30 18:36:00,
2015-01-30 12:41:00,24.4,5.2,28.67,SSE,158,4.2,4.2,43,0.00,,---,0.00,VWS V15.00,2015-01-30 18:41:00,
2015-01-30 12:46:00,23.4,3.7,28.67,South,180,2.8,2.8,42,0.00,,---,0.00,VWS V15.00,2015-01-30 18:46:00,
2015-01-30 12:51:00,21.9,2.9,28.67,SSW,202,3.4,3.4,43,0.00,,---,0.00,VWS V15.00,2015-01-30 18:51:00,
2015-01-30 12:56:00,21.9,2.9,28.67,SSW,202,1.1,1.1,43,0.00,,---,0.00,VWS V15.00,2015-01-30 18:56:00,
2015-01-30 13:01:00,23.2,4.0,28.64,South,180,5.0,5.0,43,0.00,,---,0.00,VWS V15.00,2015-01-30 19:01:00,
2015-01-30 13:06:00,23.7,4.5,28.64,South,180,1.7,1.7,43,0.00,,---,0.00,VWS V15.00,2015-01-30 19:06:00,
2015-01-30 13:11:00,22.8,3.7,28.64,SW,225,2.0,2.0,43,0.00,,---,0.00,VWS V15.00,2015-01-30 19:11:00,
2015-01-30 13:16:00,24.1,4.8,28.64,South,180,4.2,4.2,43,0.00,,---,0.00,VWS V15.00,2015-01-30 19:16:00,
2015-01-30 13:21:00,23.5,3.8,28.64,South,180,4.2,4.2,42,0.00,,---,0.00,VWS V15.00,2015-01-30 19:21:00,
2015-01-30 13:26:00,23.5,4.3,28.64,SSE,158,3.4,3.4,43,0.00,,---,0.00,VWS V15.00,2015-01-30 19:26:00,
2015-01-30 13:31:00,22.5,3.4,28.64,South,180,4.2,4.2,43,0.00,,---,0.00,VWS V15.00,2015-01-30 19:31:00,
2015-01-30 13:36:00,21.9,2.9,28.64,SSE,158,2.0,2.0,43,0.00,,---,0.00,VWS V15.00,2015-01-30 19:36:00,
2015-01-30 13:41:00,21.9,2.9,28.64,SSW,202,3.6,3.6,43,0.00,,---,0.00,VWS V15.00,2015-01-30 19:41:00,
2015-01-30 13:46:00,21.9,2.9,28.61,SW,225,4.2,4.2,43,0.00,,---,0.00,VWS V15.00,2015-01-30 19:46:00,
2015-01-30 13:51:00,21.9,2.9,28.61,SE,135,4.2,4.2,43,0.00,,---,0.00,VWS V15.00,2015-01-30 19:51:00,
2015-01-30 13:56:00,22.8,3.7,28.61,South,180,6.7,6.7,43,0.00,,---,0.00,VWS V15.00,2015-01-30 19:56:00,
2015-01-30 14:01:00,22.6,3.5,28.61,SSW,202,5.3,5.3,43,0.00,,---,0.00,VWS V15.00,2015-01-30 20:01:00,
2015-01-30 14:06:00,23.2,4.0,28.61,SSW,202,7.0,7.0,43,0.00,,---,0.00,VWS V15.00,2015-01-30 20:06:00,
2015-01-30 14:11:00,23.0,3.8,28.61,SSE,158,4.5,4.5,43,0.00,,---,0.00,VWS V15.00,2015-01-30 20:11:00,
2015-01-30 14:16:00,22.6,3.5,28.61,South,180,4.2,4.2,43,0.00,,---,0.00,VWS V15.00,2015-01-30 20:16:00,
2015-01-30 14:21:00,21.9,2.9,28.61,SSE,158,2.8,2.8,43,0.00,,---,0.00,VWS V15.00,2015-01-30 20:21:00,
2015-01-30 14:26:00,21.7,3.2,28.61,SSW,202,7.6,7.6,44,0.00,,---,0.00,VWS V15.00,2015-01-30 20:26:00,
2015-01-30 14:31:00,21.2,2.2,28.61,SE,135,3.6,3.6,43,0.00,,---,0.00,VWS V15.00,2015-01-30 20:31:00,
2015-01-30 14:36:00,21.2,2.2,28.61,SSW,202,4.8,4.8,43,0.00,,---,0.00,VWS V15.00,2015-01-30 20:36:00,
2015-01-30 14:41:00,20.7,1.7,28.61,SSE,158,4.5,4.5,43,0.00,,---,0.00,VWS V15.00,2015-01-30 20:41:00,
2015-01-30 14:46:00,20.5,1.5,28.58,South,180,6.2,6.2,43,0.00,,---,0.00,VWS V15.00,2015-01-30 20:46:00,
2015-01-30 14:51:00,20.8,1.9,28.58,South,180,4.8,4.8,43,0.00,,---,0.00,VWS V15.00,2015-01-30 20:51:00,
2015-01-30 14:56:00,21.0,2.0,28.58,SSW,202,3.4,3.4,43,0.00,,---,0.00,VWS V15.00,2015-01-30 20:56:00,
2015-01-30 15:01:00,21.0,2.0,28.58,South,180,2.5,2.5,43,0.00,,---,0.00,VWS V15.00,2015-01-30 21:01:00,
2015-01-30 15:06:00,20.7,1.7,28.58,SSW,202,2.8,2.8,43,0.00,,---,0.00,VWS V15.00,2015-01-30 21:06:00,
2015-01-30 15:11:00,20.3,1.4,28.58,SSE,158,4.2,4.2,43,0.00,,---,0.00,VWS V15.00,2015-01-30 21:11:00,
2015-01-30 15:16:00,20.1,1.2,28.61,SSW,202,7.6,7.6,43,0.00,,---,0.00,VWS V15.00,2015-01-30 21:16:00,
2015-01-30 15:21:00,19.6,0.7,28.61,WNW,292,5.0,5.0,43,0.00,,---,0.00,VWS V15.00,2015-01-30 21:21:00,
2015-01-30 15:26:00,19.2,0.9,28.61,SW,225,8.1,8.1,44,0.00,,---,0.00,VWS V15.00,2015-01-30 21:26:00,
2015-01-30 15:31:00,18.9,0.6,28.64,SSW,202,5.0,5.0,44,0.00,,---,0.00,VWS V15.00,2015-01-30 21:31:00,
2015-01-30 15:36:00,19.0,0.7,28.64,SW,225,2.5,2.5,44,0.00,,---,0.00,VWS V15.00,2015-01-30 21:36:00,
2015-01-30 15:41:00,18.9,0.6,28.64,South,180,3.1,3.1,44,0.00,,---,0.00,VWS V15.00,2015-01-30 21:41:00,
2015-01-30 15:46:00,18.1,-0.1,28.61,SSW,202,3.1,3.1,44,0.00,,---,0.00,VWS V15.00,2015-01-30 21:46:00,
2015-01-30 15:51:00,17.1,-0.6,28.61,SW,225,3.1,3.1,45,0.00,,---,0.00,VWS V15.00,2015-01-30 21:51:00,
2015-01-30 15:56:00,16.5,-0.6,28.61,SSW,202,2.0,2.0,46,0.00,,---,0.00,VWS V15.00,2015-01-30 21:56:00,
2015-01-30 16:01:00,16.0,-0.7,28.61,South,180,3.6,3.6,47,0.00,,---,0.00,VWS V15.00,2015-01-30 22:01:00,
2015-01-30 16:06:00,15.8,-0.4,28.61,WSW,248,1.1,1.1,48,0.00,,---,0.00,VWS V15.00,2015-01-30 22:06:00,
2015-01-30 16:11:00,15.4,-0.3,28.61,South,180,2.5,2.5,49,0.00,,---,0.00,VWS V15.00,2015-01-30 22:11:00,
2015-01-30 16:16:00,15.3,0.0,28.58,SSW,202,2.8,2.8,50,0.00,,---,0.00,VWS V15.00,2015-01-30 22:16:00,
2015-01-30 16:21:00,15.3,0.8,28.58,SSW,202,3.9,3.9,52,0.00,,---,0.00,VWS V15.00,2015-01-30 22:21:00,
2015-01-30 16:26:00,15.1,1.0,28.58,SSE,158,5.9,5.9,53,0.00,,---,0.00,VWS V15.00,2015-01-30 22:26:00,
2015-01-30 16:31:00,14.9,1.3,28.58,SW,225,4.2,4.2,54,0.00,,---,0.00,VWS V15.00,2015-01-30 22:31:00,
2015-01-30 16:36:00,14.5,0.9,28.58,South,180,3.1,3.1,54,0.00,,---,0.00,VWS V15.00,2015-01-30 22:36:00,
2015-01-30 16:41:00,14.2,1.0,28.58,South,180,3.4,3.4,55,0.00,,---,0.00,VWS V15.00,2015-01-30 22:41:00,
2015-01-30 16:46:00,14.0,0.8,28.55,SSW,202,3.1,3.1,55,0.00,,---,0.00,VWS V15.00,2015-01-30 22:46:00,
2015-01-30 16:51:00,13.8,0.6,28.55,SSW,202,4.5,4.5,55,0.00,,---,0.00,VWS V15.00,2015-01-30 22:51:00,
2015-01-30 16:56:00,13.8,0.6,28.55,SSW,202,3.6,3.6,55,0.00,,---,0.00,VWS V15.00,2015-01-30 22:56:00,
2015-01-30 17:01:00,13.8,0.6,28.55,SSW,202,2.8,2.8,55,0.00,,---,0.00,VWS V15.00,2015-01-30 23:01:00,
2015-01-30 17:06:00,13.8,0.6,28.55,South,180,3.4,3.4,55,0.00,,---,0.00,VWS V15.00,2015-01-30 23:06:00,
2015-01-30 17:11:00,13.6,0.5,28.55,SSE,158,3.6,3.6,55,0.00,,---,0.00,VWS V15.00,2015-01-30 23:11:00,
2015-01-30 17:16:00,13.3,0.2,28.52,South,180,3.4,3.4,55,0.00,,---,0.00,VWS V15.00,2015-01-30 23:16:00,
2015-01-30 17:21:00,13.1,0.0,28.52,SSW,202,3.9,3.9,55,0.00,,---,0.00,VWS V15.00,2015-01-30 23:21:00,
2015-01-30 17:26:00,12.9,-0.2,28.52,South,180,2.8,2.8,55,0.00,,---,0.00,VWS V15.00,2015-01-30 23:26:00,
2015-01-30 17:31:00,12.7,-0.4,28.55,SSE,158,3.9,3.9,55,0.00,,---,0.00,VWS V15.00,2015-01-30 23:31:00,
2015-01-30 17:36:00,12.6,-0.5,28.55,South,180,4.5,4.5,55,0.00,,---,0.00,VWS V15.00,2015-01-30 23:36:00,
2015-01-30 17:41:00,12.2,-0.9,28.55,South,180,3.1,3.1,55,0.00,,---,0.00,VWS V15.00,2015-01-30 23:41:00,
2015-01-30 17:46:00,12.2,-0.9,28.55,South,180,2.8,2.8,55,0.00,,---,0.00,VWS V15.00,2015-01-30 23:46:00,
2015-01-30 17:51:00,12.6,-0.5,28.55,South,180,3.4,3.4,55,0.00,,---,0.00,VWS V15.00,2015-01-30 23:51:00,
2015-01-30 17:56:00,12.6,-0.5,28.55,SSW,202,3.4,3.4,55,0.00,,---,0.00,VWS V15.00,2015-01-30 23:56:00,
2015-01-30 18:01:00,12.6,-0.5,28.55,South,180,3.4,3.4,55,0.00,,---,0.00,VWS V15.00,2015-01-31 00:01:00,
2015-01-30 18:06:00,12.6,-0.5,28.55,SSW,202,3.4,3.4,55,0.00,,---,0.00,VWS V15.00,2015-01-31 00:06:00,
2015-01-30 18:11:00,12.7,-0.4,28.55,SSE,158,4.8,4.8,55,0.00,,---,0.00,VWS V15.00,2015-01-31 00:11:00,
2015-01-30 18:16:00,12.9,-0.2,28.52,SSW,202,4.2,4.2,55,0.00,,---,0.00,VWS V15.00,2015-01-31 00:16:00,
2015-01-30 18:21:00,13.1,0.0,28.52,SSW,202,3.9,3.9,55,0.00,,---,0.00,VWS V15.00,2015-01-31 00:21:00,
2015-01-30 18:26:00,13.3,0.2,28.52,SSW,202,7.0,7.0,55,0.00,,---,0.00,VWS V15.00,2015-01-31 00:26:00,
2015-01-30 18:31:00,13.3,0.2,28.52,SW,225,4.2,4.2,55,0.00,,---,0.00,VWS V15.00,2015-01-31 00:31:00,
2015-01-30 18:36:00,13.5,0.3,28.52,South,180,4.5,4.5,55,0.00,,---,0.00,VWS V15.00,2015-01-31 00:36:00,
2015-01-30 18:41:00,13.6,0.5,28.52,SSW,202,6.2,6.2,55,0.00,,---,0.00,VWS V15.00,2015-01-31 00:41:00,
2015-01-30 18:46:00,13.6,0.5,28.52,SSW,202,3.4,3.4,55,0.00,,---,0.00,VWS V15.00,2015-01-31 00:46:00,
2015-01-30 18:51:00,13.6,0.5,28.52,SSW,202,3.6,3.6,55,0.00,,---,0.00,VWS V15.00,2015-01-31 00:51:00,
2015-01-30 18:56:00,13.8,0.6,28.52,SSW,202,5.0,5.0,55,0.00,,---,0.00,VWS V15.00,2015-01-31 00:56:00,
2015-01-30 19:01:00,14.0,3.0,28.52,SSW,202,4.5,4.5,61,0.00,,---,0.00,VWS V15.00,2015-01-31 01:01:00,
2015-01-30 19:06:00,14.2,2.9,28.52,SW,225,8.1,8.1,60,0.00,,---,0.00,VWS V15.00,2015-01-31 01:06:00,
2015-01-30 19:11:00,14.2,2.5,28.52,SSW,202,4.8,4.8,59,0.00,,---,0.00,VWS V15.00,2015-01-31 01:11:00,
2015-01-30 19:16:00,14.2,2.5,28.52,SSW,202,3.9,3.9,59,0.00,,---,0.00,VWS V15.00,2015-01-31 01:16:00,
2015-01-30 19:21:00,14.4,2.3,28.52,SW,225,3.6,3.6,58,0.00,,---,0.00,VWS V15.00,2015-01-31 01:21:00,
2015-01-30 19:26:00,14.4,1.9,28.52,SSW,202,8.1,8.1,57,0.00,,---,0.00,VWS V15.00,2015-01-31 01:26:00,
2015-01-30 19:31:00,14.4,1.5,28.52,South,180,4.8,4.8,56,0.00,,---,0.00,VWS V15.00,2015-01-31 01:31:00,
2015-01-30 19:36:00,14.5,2.1,28.52,SSW,202,8.1,8.1,57,0.00,,---,0.00,VWS V15.00,2015-01-31 01:36:00,
2015-01-30 19:41:00,14.5,1.7,28.52,SSW,202,5.0,5.0,56,0.00,,---,0.00,VWS V15.00,2015-01-31 01:41:00,
2015-01-30 19:46:00,14.5,1.7,28.50,South,180,2.5,2.5,56,0.00,,---,0.00,VWS V15.00,2015-01-31 01:46:00,
2015-01-30 19:51:00,14.5,1.3,28.50,SSW,202,6.2,6.2,55,0.00,,---,0.00,VWS V15.00,2015-01-31 01:51:00,
2015-01-30 19:56:00,14.7,1.5,28.50,SSW,202,5.9,5.9,55,0.00,,---,0.00,VWS V15.00,2015-01-31 01:56:00,
2015-01-30 20:01:00,14.7,1.5,28.50,SSE,158,4.8,4.8,55,0.00,,---,0.00,VWS V15.00,2015-01-31 02:01:00,
2015-01-30 20:06:00,14.7,1.1,28.50,SSW,202,8.1,8.1,54,0.00,,---,0.00,VWS V15.00,2015-01-31 02:06:00,
2015-01-30 20:11:00,14.9,1.3,28.50,South,180,4.5,4.5,54,0.00,,---,0.00,VWS V15.00,2015-01-31 02:11:00,
2015-01-30 20:16:00,14.9,1.3,28.50,SSW,202,7.6,7.6,54,0.00,,---,0.00,VWS V15.00,2015-01-31 02:16:00,
2015-01-30 20:21:00,14.9,1.3,28.50,SSW,202,7.3,7.3,54,0.00,,---,0.00,VWS V15.00,2015-01-31 02:21:00,
2015-01-30 20:26:00,14.9,0.9,28.50,SSW,202,5.9,5.9,53,0.00,,---,0.00,VWS V15.00,2015-01-31 02:26:00,
2015-01-30 20:31:00,14.9,1.3,28.50,SSW,202,3.6,3.6,54,0.00,,---,0.00,VWS V15.00,2015-01-31 02:31:00,
2015-01-30 20:36:00,14.9,0.9,28.50,SW,225,7.3,7.3,53,0.00,,---,0.00,VWS V15.00,2015-01-31 02:36:00,
2015-01-30 20:41:00,14.9,0.9,28.50,South,180,7.0,7.0,53,0.00,,---,0.00,VWS V15.00,2015-01-31 02:41:00,
2015-01-30 20:46:00,14.9,0.9,28.50,South,180,5.3,5.3,53,0.00,,---,0.00,VWS V15.00,2015-01-31 02:46:00,
2015-01-30 20:51:00,14.9,0.9,28.50,SSW,202,4.8,4.8,53,0.00,,---,0.00,VWS V15.00,2015-01-31 02:51:00,
2015-01-30 20:56:00,14.9,1.3,28.50,SW,225,4.2,4.2,54,0.00,,---,0.00,VWS V15.00,2015-01-31 02:56:00,
2015-01-30 21:01:00,14.9,1.3,28.50,SW,225,10.9,10.9,54,0.00,,---,0.00,VWS V15.00,2015-01-31 03:01:00,
2015-01-30 21:06:00,14.9,1.3,28.50,SSW,202,8.1,8.1,54,0.00,,---,0.00,VWS V15.00,2015-01-31 03:06:00,
2015-01-30 21:11:00,14.7,1.1,28.50,SW,225,4.8,4.8,54,0.00,,---,0.00,VWS V15.00,2015-01-31 03:11:00,
2015-01-30 21:16:00,14.5,0.9,28.47,SSW,202,5.0,5.0,54,0.00,,---,0.00,VWS V15.00,2015-01-31 03:16:00,
2015-01-30 21:21:00,14.5,0.5,28.47,SE,135,3.4,3.4,53,0.00,,---,0.00,VWS V15.00,2015-01-31 03:21:00,
2015-01-30 21:26:00,14.4,0.8,28.47,South,180,3.6,3.6,54,0.00,,---,0.00,VWS V15.00,2015-01-31 03:26:00,
2015-01-30 21:31:00,14.2,0.6,28.50,SSW,202,7.3,7.3,54,0.00,,---,0.00,VWS V15.00,2015-01-31 03:31:00,
2015-01-30 21:36:00,14.2,0.6,28.50,SW,225,7.6,7.6,54,0.00,,---,0.00,VWS V15.00,2015-01-31 03:36:00,
2015-01-30 21:41:00,14.0,0.4,28.50,SSW,202,7.8,7.8,54,0.00,,---,0.00,VWS V15.00,2015-01-31 03:41:00,
2015-01-30 21:46:00,14.0,0.8,28.50,SSW,202,6.7,6.7,55,0.00,,---,0.00,VWS V15.00,2015-01-31 03:46:00,
2015-01-30 21:51:00,14.0,0.8,28.50,SSE,158,5.3,5.3,55,0.00,,---,0.00,VWS V15.00,2015-01-31 03:51:00,
2015-01-30 21:56:00,14.0,0.8,28.50,SSW,202,7.8,7.8,55,0.00,,---,0.00,VWS V15.00,2015-01-31 03:56:00,
2015-01-30 22:01:00,13.8,0.6,28.50,SSW,202,3.9,3.9,55,0.00,,---,0.00,VWS V15.00,2015-01-31 04:01:00,
2015-01-30 22:06:00,14.0,0.8,28.50,South,180,2.5,2.5,55,0.00,,---,0.00,VWS V15.00,2015-01-31 04:06:00,
2015-01-30 22:11:00,14.0,1.2,28.50,South,180,3.9,3.9,56,0.00,,---,0.00,VWS V15.00,2015-01-31 04:11:00,
2015-01-30 22:16:00,14.0,1.2,28.50,SSW,202,5.9,5.9,56,0.00,,---,0.00,VWS V15.00,2015-01-31 04:16:00,
2015-01-30 22:21:00,14.0,1.2,28.50,SSE,158,2.0,2.0,56,0.00,,---,0.00,VWS V15.00,2015-01-31 04:21:00,
2015-01-30 22:26:00,14.0,1.2,28.50,SSW,202,3.1,3.1,56,0.00,,---,0.00,VWS V15.00,2015-01-31 04:26:00,